Location: Curry Village
(37.7369°N, 119.5727°W)
Time: 19:01:52
(UTC+00:00)

Cosmos 1733 Rocket - Pass Details

Date: 05 August 2024
Orbit: 598 x 624 km, 82.5° (Epoch: 12 September)

Event Time Altitude Azimuth Distance (km) Brightness Sun altitude
Exits shadow 12:00:49 - 188° (S) 2,356 5.7 -12.2°
Reaches altitude 10° 12:01:44 10° 188° (S) 1,990 5.3 -12.1°
Maximum altitude 12:06:09 84° 277° (W) 632 3.0 -11.4°
Drops below altitude 10° 12:10:35 10° 6° (N) 1,996 6.2 -10.6°
Sets 12:12:49 0° 7° (N) 2,903 7.1 -10.2°
